(4660) Nereus
ephemeris date magn radius delta ra dec elong phase
Today24 Aug 202621.72.000 AU1.199 AU18h43m-23°29'129.4°23.0°
(4660) Nereus - 2026-08-24
astro.vanbuitenen.nl


 
-1 year
-1 month
-1 day
Now
+1 day
+1 month
+1 year

The interactive orbit chart above shows the body's path through the solar system and its position at the given date. Green and blue lines are shown perpendicular to the ecliptic plane: Green if the path is above the ecliptic plane, blue if it is below. (Left-click and drag to rotate the view; Right-click and drag to move the view; Use scroll wheel to zoom in our out.)

The orbital elements of Nereus are:

            e (Eccentricity)                : 0.3587436
            a (Semimajor axis)              : 1.4851126
            i (Inclination)                 : 1.45354
            Ω (Longitude of ascending node) : 313.10555
            ω (Argument of perihelion)      : 159.55682
            M (Mean anomaly)                : 158.72513
            Epoch                           : 2026 Jun 09

            L (Longitude of perihelion)     : 292.66840
            B (Latitude of perihelion)      : 0.50764
            P (Orbital period in years)     : 1.81            
        

The light curve chart below shows the estimated development of the minor planet's magnitude.


The all-sky chart below shows the path of the minor planet over the same period as the light curve. The current position is marked yellow.





The following chart shows the path of the minor planet in the next few days. The field of view is optimized for (~10x50) binoculars and finderscopes.




Ephemerides:
Date       Time       RA (2000)    DEC (2000)    delta   radius  elong  phase   PA    magn
2026-08-24 00:00 UT   18 43 13.0   -23 29 60     1.199    2.000  129.4   23.0    85   21.7 
2026-08-24 08:22 UT   18 43 04.4   -23 29 50     1.202    2.000  129.0   23.1    85   21.8 
2026-08-25 00:00 UT   18 42 49.2   -23 29 30     1.208    1.999  128.3   23.4    85   21.8 
2026-08-26 00:00 UT   18 42 28.1   -23 28 58     1.217    1.998  127.3   23.7    85   21.8 
2026-08-27 00:00 UT   18 42 09.8   -23 28 24     1.226    1.997  126.3   24.1    86   21.8 
2026-08-28 00:00 UT   18 41 54.1   -23 27 47     1.235    1.996  125.2   24.4    86   21.8 
2026-08-29 00:00 UT   18 41 41.2   -23 27 08     1.244    1.995  124.2   24.7    86   21.9 
2026-08-30 00:00 UT   18 41 31.0   -23 26 28     1.253    1.994  123.2   25.1    86   21.9 
2026-08-31 00:00 UT   18 41 23.3   -23 25 45     1.262    1.993  122.2   25.4    86   21.9 
2026-09-01 00:00 UT   18 41 18.3   -23 24 60     1.271    1.992  121.2   25.7    86   21.9 
2026-09-02 00:00 UT   18 41 15.9   -23 24 13     1.281    1.990  120.3   26.0    86   22.0 
2026-09-03 00:00 UT   18 41 16.0   -23 23 25     1.290    1.989  119.3   26.2    86   22.0 
2026-09-04 00:00 UT   18 41 18.6   -23 22 34     1.300    1.988  118.3   26.5    86   22.0 
2026-09-05 00:00 UT   18 41 23.7   -23 21 42     1.310    1.987  117.4   26.8    86   22.0 
2026-09-06 00:00 UT   18 41 31.3   -23 20 48     1.319    1.985  116.5   27.0    86   22.1 
2026-09-07 00:00 UT   18 41 41.3   -23 19 52     1.329    1.984  115.5   27.3    86   22.1 
2026-09-08 00:00 UT   18 41 53.7   -23 18 54     1.339    1.983  114.6   27.5    86   22.1 
2026-09-09 00:00 UT   18 42 08.4   -23 17 55     1.349    1.981  113.7   27.7    86   22.1 
2026-09-10 00:00 UT   18 42 25.5   -23 16 53     1.359    1.980  112.8   28.0    86   22.1 
2026-09-11 00:00 UT   18 42 45.0   -23 15 50     1.369    1.979  111.9   28.2    86   22.2 
2026-09-12 00:00 UT   18 43 06.7   -23 14 45     1.379    1.977  111.0   28.4    86   22.2 
2026-09-13 00:00 UT   18 43 30.6   -23 13 38     1.389    1.976  110.1   28.6    86   22.2 
2026-09-14 00:00 UT   18 43 56.8   -23 12 29     1.399    1.974  109.2   28.8    86   22.2 
2026-09-15 00:00 UT   18 44 25.1   -23 11 17     1.409    1.973  108.4   28.9    86   22.2 
2026-09-16 00:00 UT   18 44 55.5   -23 10 04     1.419    1.971  107.5   29.1    86   22.3 
2026-09-17 00:00 UT   18 45 28.0   -23 08 49     1.430    1.969  106.7   29.3    85   22.3 
2026-09-18 00:00 UT   18 46 02.6   -23 07 31     1.440    1.968  105.8   29.4    85   22.3 
2026-09-19 00:00 UT   18 46 39.2   -23 06 12     1.450    1.966  105.0   29.6    85   22.3 
2026-09-20 00:00 UT   18 47 17.8   -23 04 50     1.460    1.965  104.2   29.7    85   22.3 
2026-09-21 00:00 UT   18 47 58.3   -23 03 26     1.471    1.963  103.4   29.9    85   22.3 
2026-09-22 00:00 UT   18 48 40.8   -23 01 59     1.481    1.961  102.5   30.0    85   22.4 
2026-09-23 00:00 UT   18 49 25.1   -23 00 30     1.491    1.959  101.7   30.1    85   22.4 


    Terminology:
            
    delta:  distance between minor planet and earth in AU
    radius: distance between minor planet and sun in AU
    magn:   magnitude (brightness) estimate    
    ra:     right ascension in hours (24h = 360deg)
    dec:    declination in degrees
    elong:  elongation in degrees (angle sun-earth-minor planet)    
    phase:  phase angle in degrees (angle sun-minor planet-earth)        
    AU:     Astronomical Unit (mean distance between earth and sun: 149597870.7 km
    

Orbital elements provided by the MPC (Minor Planet Center).
Calculations by a modified version of AAPlus, a C# implementation of the AA+ project by PJ Naughter from the algorithms presented in the book "Astronomical Algorithms" by Jean Meeus.
NGC2000 dso catalog and star labels from VizieR as provided by the Strasbourg astronomical Data Center.
Tycho2 catalog from the ESO archive.